When you browse on this site, cookies collect data to enhance your experience and personalize the content and advertising you see.
Visit our Privacy Policy to learn more. By continuing to use the site, you agree to this use of cookies and data.
  • In Germany
  • List of Countries
  • For 7 days
  • Water Temperature
  • Satellite Maps
  • Weather Map
  • Weather Widgets
  • user-avatar
    Login

    Hourly Weather Mumbai

    Today, 11 December, Tuesday

    Time Temperature Precipitation Wind Pressure Humidity
    00:00 +22°C° 0 mm 3 mps 759 mmHg 48%
    01:00 +21°C° 0 mm 3 mps 759 mmHg 48%
    02:00 +21°C° 0 mm 3 mps 759 mmHg 47%
    03:00 +21°C° 0 mm 3 mps 759 mmHg 46%
    04:00 +20°C° 0 mm 3 mps 759 mmHg 46%
    05:00 +20°C° 0 mm 3 mps 759 mmHg 45%
    06:00 +21°C° 0 mm 3 mps 759 mmHg 42%
    07:00 +22°C° 0 mm 3 mps 760 mmHg 40%
    08:00 +24°C° 0 mm 3 mps 760 mmHg 38%
    09:00 +27°C° 0 mm 3 mps 760 mmHg 33%
    10:00 +30°C° 0 mm 3 mps 760 mmHg 28%
    11:00 +34°C° 0 mm 3 mps 760 mmHg 23%
    12:00 +34°C° 0 mm 3 mps 760 mmHg 23%
    13:00 +35°C° 0 mm 3 mps 759 mmHg 22%
    14:00 +36°C° 0 mm 3 mps 758 mmHg 21%
    15:00 +34°C° 0 mm 4 mps 758 mmHg 27%
    16:00 +32°C° 0 mm 4 mps 758 mmHg 32%
    17:00 +30°C° 0 mm 5 mps 758 mmHg 38%
    18:00 +28°C° 0 mm 5 mps 758 mmHg 43%
    19:00 +27°C° 0 mm 5 mps 759 mmHg 48%
    20:00 +25°C° 0 mm 4 mps 759 mmHg 53%
    21:00 +25°C° 0 mm 4 mps 759 mmHg 53%
    22:00 +23°C° 0 mm 4 mps 759 mmHg 53%
    23:00 +24°C° 0 mm 3 mps 759 mmHg 53%

    Tomorrow, 12 December, Wednesday

    Time Temperature Precipitation Wind Pressure Humidity
    00:00 +24°C° 0 mm 3 mps 759 mmHg 52%
    01:00 +22°C° 0 mm 3 mps 759 mmHg 52%
    02:00 +22°C° 0 mm 3 mps 759 mmHg 51%
    03:00 +22°C° 0 mm 3 mps 759 mmHg 50%
    04:00 +21°C° 0 mm 3 mps 759 mmHg 49%
    05:00 +21°C° 0 mm 3 mps 759 mmHg 48%
    06:00 +22°C° 0 mm 3 mps 759 mmHg 46%
    07:00 +24°C° 0 mm 3 mps 760 mmHg 43%
    08:00 +25°C° 0 mm 3 mps 760 mmHg 40%
    09:00 +28°C° 0 mm 2 mps 760 mmHg 34%
    10:00 +31°C° 0 mm 2 mps 760 mmHg 29%
    11:00 +34°C° 0 mm 2 mps 760 mmHg 23%
    12:00 +35°C° 0 mm 3 mps 760 mmHg 24%
    13:00 +35°C° 0 mm 3 mps 759 mmHg 24%
    14:00 +35°C° 0 mm 4 mps 758 mmHg 24%
    15:00 +34°C° 0 mm 4 mps 758 mmHg 29%
    16:00 +32°C° 0 mm 4 mps 758 mmHg 34%
    17:00 +30°C° 0 mm 5 mps 758 mmHg 38%
    18:00 +28°C° 0 mm 4 mps 758 mmHg 42%
    19:00 +27°C° 0 mm 4 mps 759 mmHg 46%
    20:00 +25°C° 0 mm 3 mps 760 mmHg 50%
    21:00 +25°C° 0 mm 3 mps 760 mmHg 50%
    22:00 +25°C° 0 mm 3 mps 760 mmHg 50%
    23:00 +24°C° 0 mm 3 mps 760 mmHg 50%

    Day after tomorrow, 13 December, Thursday

    Time Temperature Precipitation Wind Pressure Humidity
    00:00 +23°C° 0 mm 4 mps 759 mmHg 49%
    01:00 +22°C° 0 mm 4 mps 759 mmHg 48%
    02:00 +22°C° 0 mm 4 mps 759 mmHg 47%
    03:00 +22°C° 0 mm 4 mps 759 mmHg 46%
    04:00 +22°C° 0 mm 4 mps 759 mmHg 45%
    05:00 +21°C° 0 mm 4 mps 759 mmHg 45%
    06:00 +22°C° 0 mm 3 mps 759 mmHg 43%
    07:00 +24°C° 0 mm 3 mps 760 mmHg 41%
    08:00 +25°C° 0 mm 3 mps 761 mmHg 39%
    09:00 +28°C° 0 mm 3 mps 761 mmHg 35%
    10:00 +31°C° 0 mm 3 mps 761 mmHg 32%
    11:00 +34°C° 0 mm 3 mps 761 mmHg 28%
    12:00 +35°C° 0 mm 3 mps 760 mmHg 27%
    13:00 +36°C° 0 mm 4 mps 759 mmHg 26%
    14:00 +36°C° 0 mm 4 mps 758 mmHg 25%
    15:00 +35°C° 0 mm 5 mps 758 mmHg 29%
    16:00 +34°C° 0 mm 5 mps 758 mmHg 33%
    17:00 +32°C° 0 mm 6 mps 757 mmHg 37%
    18:00 +30°C° 0 mm 6 mps 758 mmHg 41%
    19:00 +29°C° 0 mm 6 mps 759 mmHg 44%
    20:00 +28°C° 0 mm 6 mps 760 mmHg 48%
    21:00 +27°C° 0 mm 6 mps 760 mmHg 47%
    22:00 +27°C° 0 mm 5 mps 760 mmHg 46%
    23:00 +27°C° 0 mm 5 mps 760 mmHg 45%

    14 December, Friday

    Time Temperature Precipitation Wind Pressure Humidity
    00:00 +26°C° 0 mm 5 mps 759 mmHg 46%
    01:00 +26°C° 0 mm 5 mps 759 mmHg 47%
    02:00 +26°C° 0 mm 5 mps 759 mmHg 48%
    03:00 +26°C° 0 mm 6 mps 759 mmHg 48%
    04:00 +26°C° 0 mm 6 mps 759 mmHg 48%
    05:00 +24°C° 0 mm 6 mps 759 mmHg 48%
    06:00 +26°C° 0 mm 6 mps 759 mmHg 47%
    07:00 +27°C° 0 mm 6 mps 760 mmHg 45%
    08:00 +27°C° 0 mm 7 mps 761 mmHg 43%
    09:00 +29°C° 0 mm 6 mps 761 mmHg 40%
    10:00 +32°C° 0 mm 6 mps 761 mmHg 37%
    11:00 +34°C° 0 mm 6 mps 761 mmHg 34%
    12:00 +34°C° 0 mm 5 mps 760 mmHg 34%
    13:00 +35°C° 0 mm 5 mps 759 mmHg 33%
    14:00 +35°C° 0 mm 4 mps 759 mmHg 33%
    15:00 +34°C° 0 mm 4 mps 759 mmHg 35%
    16:00 +33°C° 0 mm 4 mps 759 mmHg 38%
    17:00 +32°C° 0 mm 5 mps 759 mmHg 40%
    18:00 +30°C° 0 mm 5 mps 759 mmHg 42%
    19:00 +28°C° 0 mm 5 mps 760 mmHg 44%
    20:00 +27°C° 0 mm 5 mps 761 mmHg 46%
    21:00 +26°C° 0 mm 5 mps 761 mmHg 46%
    22:00 +26°C° 0 mm 5 mps 761 mmHg 46%
    23:00 +25°C° 0 mm 5 mps 761 mmHg 47%

    15 December, Saturday

    Time Temperature Precipitation Wind Pressure Humidity
    00:00 +25°C° 0 mm 5 mps 760 mmHg 45%
    01:00 +25°C° 0 mm 5 mps 760 mmHg 44%
    02:00 +25°C° 0 mm 5 mps 760 mmHg 43%
    03:00 +25°C° 0 mm 5 mps 759 mmHg 41%
    04:00 +23°C° 0 mm 5 mps 759 mmHg 39%
    05:00 +23°C° 0 mm 5 mps 759 mmHg 37%
    06:00 +25°C° 0 mm 5 mps 760 mmHg 36%
    07:00 +25°C° 0 mm 5 mps 761 mmHg 35%
    08:00 +26°C° 0 mm 5 mps 761 mmHg 34%
    09:00 +28°C° 0 mm 5 mps 761 mmHg 31%
    10:00 +30°C° 0 mm 5 mps 761 mmHg 29%
    11:00 +33°C° 0 mm 4 mps 761 mmHg 26%
    12:00 +34°C° 0 mm 4 mps 760 mmHg 25%
    13:00 +34°C° 0 mm 4 mps 759 mmHg 25%
    14:00 +35°C° 0 mm 4 mps 759 mmHg 24%
    15:00 +34°C° 0 mm 4 mps 759 mmHg 26%
    16:00 +33°C° 0 mm 4 mps 759 mmHg 28%
    17:00 +32°C° 0 mm 4 mps 759 mmHg 29%
    18:00 +29°C° 0 mm 4 mps 759 mmHg 30%
    19:00 +28°C° 0 mm 4 mps 760 mmHg 31%
    20:00 +26°C° 0 mm 4 mps 760 mmHg 32%
    21:00 +26°C° 0 mm 4 mps 761 mmHg 33%
    22:00 +26°C° 0 mm 5 mps 761 mmHg 33%
    23:00 +26°C° 0 mm 5 mps 761 mmHg 33%

    16 December, Sunday

    Time Temperature Precipitation Wind Pressure Humidity
    00:00 +25°C° 0 mm 5 mps 760 mmHg 35%
    01:00 +25°C° 0 mm 5 mps 760 mmHg 37%
    02:00 +23°C° 0 mm 5 mps 759 mmHg 38%
    03:00 +23°C° 0 mm 5 mps 759 mmHg 39%
    04:00 +23°C° 0 mm 5 mps 759 mmHg 41%
    05:00 +22°C° 0 mm 5 mps 760 mmHg 42%
    06:00 +23°C° 0 mm 5 mps 760 mmHg 42%
    07:00 +23°C° 0 mm 5 mps 761 mmHg 42%
    08:00 +25°C° 0 mm 5 mps 761 mmHg 42%
    09:00 +27°C° 0 mm 5 mps 761 mmHg 39%
    10:00 +29°C° 0 mm 5 mps 761 mmHg 36%
    11:00 +32°C° 0 mm 4 mps 760 mmHg 33%
    12:00 +32°C° 0 mm 4 mps 760 mmHg 32%
    13:00 +33°C° 0 mm 4 mps 759 mmHg 31%
    14:00 +33°C° 0 mm 4 mps 758 mmHg 29%
    15:00 +32°C° 0 mm 4 mps 758 mmHg 32%
    16:00 +30°C° 0 mm 4 mps 758 mmHg 34%
    17:00 +29°C° 0 mm 4 mps 758 mmHg 36%
    18:00 +27°C° 0 mm 4 mps 759 mmHg 41%
    19:00 +26°C° 0 mm 5 mps 759 mmHg 45%
    20:00 +25°C° 0 mm 5 mps 760 mmHg 49%
    21:00 +25°C° 0 mm 5 mps 760 mmHg 52%
    22:00 +25°C° 0 mm 5 mps 760 mmHg 54%
    23:00 +25°C° 0 mm 5 mps 759 mmHg 56%
    Show more